FW1394 Weather Reports


Display with metric or nautical units.
time (UTC)temp
F
wind
direction
speed
MPH
gust
MPH
rain 1hr
in
rain 24hr
in
rain mn
in
humidity
%
barometer
mb
20260506025542 56 0 0.0 0.0 0.00 0.00 0.00 77 1014.4
20260506025041 56 0 0.0 0.0 0.00 0.00 0.00 77 1014.4
20260506024558 56 0 0.0 0.0 0.00 0.00 0.00 77 1014.4
20260506024041 56 0 0.0 0.0 0.00 0.00 0.00 77 1014.4
20260506023543 56 0 0.0 0.0 0.00 0.00 0.00 76 1014.4
20260506023058 56 0 0.0 0.0 0.00 0.00 0.00 77 1014.4
20260506022541 56 0 0.0 0.0 0.00 0.00 0.00 76 1014.5
20260506022042 57 0 0.0 0.0 0.00 0.00 0.00 76 1014.5
20260506021555 57 0 0.0 0.0 0.00 0.00 0.00 77 1014.5
20260506021041 57 0 0.0 0.0 0.00 0.00 0.00 77 1014.5
20260506020541 57 0 0.0 0.0 0.00 0.00 0.00 77 1014.5
20260506020051 57 0 0.0 0.0 0.00 0.00 0.00 76 1014.5
20260506015542 57 0 0.0 0.0 0.00 0.00 0.00 76 1014.5
20260506015041 57 0 0.0 0.0 0.00 0.00 0.00 76 1014.5
20260506014552 57 0 0.0 0.0 0.00 0.00 0.00 76 1014.4
20260506014041 57 0 0.0 0.0 0.00 0.00 0.00 75 1014.5
20260506013541 57 0 0.0 0.0 0.00 0.00 0.00 75 1014.5
20260506013054 57 0 0.0 0.0 0.00 0.00 0.00 75 1014.5
20260506012540 57 0 0.0 0.0 0.00 0.00 0.00 76 1014.6
20260506012039 58 0 0.0 0.0 0.00 0.00 0.00 75 1014.5
20260506011552 58 0 0.0 0.0 0.00 0.00 0.00 75 1014.6
20260506011042 58 0 0.0 0.0 0.00 0.00 0.00 75 1014.5
20260506010540 58 0 0.0 0.0 0.00 0.00 0.00 75 1014.5
20260506005537 58 0 0.0 0.0 0.00 0.00 0.00 74 1014.5
20260506005039 58 0 0.0 0.0 0.00 0.00 0.00 74 1014.5
20260506004550 59 0 0.0 0.0 0.00 0.00 0.00 74 1014.5
20260506004040 59 0 0.0 0.0 0.00 0.00 0.00 74 1014.5
20260506003540 59 0 0.0 0.0 0.00 0.00 0.00 73 1014.5
20260506003055 59 0 0.0 0.0 0.00 0.00 0.00 72 1014.5
20260506002538 60 0 0.0 0.0 0.00 0.00 0.00 71 1014.4
20260506002038 60 0 0.0 0.0 0.00 0.00 0.00 71 1014.5
20260506001553 60 0 0.0 0.0 0.00 0.00 0.00 70 1014.5
20260506001038 61 0 0.0 0.0 0.00 0.00 0.00 70 1014.5
20260506000539 61 0 0.0 0.0 0.00 0.00 0.00 70 1014.7
20260506000052 62 0 0.0 0.0 0.00 0.00 0.00 69 1014.7
20260505235540 62 0 0.0 0.0 0.00 0.00 0.00 67 1014.7
20260505235043 63 0 0.0 0.0 0.00 0.00 0.00 67 1014.9
20260505234606 63 0 0.0 0.0 0.00 0.00 0.00 66 1014.8
20260505234042 64 0 0.0 0.0 0.00 0.00 0.00 65 1014.9
20260505233541 64 0 0.0 0.0 0.00 0.00 0.00 63 1015.0
20260505233049 65 0 0.0 0.0 0.00 0.00 0.00 63 1015.0
20260505232540 66 0 0.0 0.0 0.00 0.00 0.00 62 1015.1
20260505232043 66 0 0.0 0.0 0.00 0.00 0.00 61 1015.2
20260505231553 67 0 0.0 0.0 0.00 0.00 0.00 59 1015.1
20260505231041 68 0 0.0 0.0 0.00 0.00 0.00 60 1015.2
20260505230541 68 0 0.0 0.0 0.00 0.00 0.00 60 1015.2
20260505230048 68 0 0.0 0.0 0.00 0.00 0.00 60 1015.3
20260505225538 68 0 0.0 0.0 0.00 0.00 0.00 61 1015.3
20260505225039 68 0 0.0 0.0 0.00 0.00 0.00 60 1015.3
20260505224551 68 0 0.0 0.0 0.00 0.00 0.00 62 1015.3
20260505224040 67 0 0.0 0.0 0.00 0.00 0.00 62 1015.3
20260505223537 67 0 0.0 0.0 0.00 0.00 0.00 63 1015.3
20260505223053 66 0 0.0 0.0 0.00 0.00 0.00 66 1015.5
20260505222542 65 0 0.0 0.0 0.00 0.00 0.00 67 1015.5
20260505222040 64 0 0.0 0.0 0.00 0.00 0.00 71 1015.6
20260505221547 63 0 0.0 0.0 0.00 0.00 0.00 70 1015.6
20260505221043 63 0 0.0 0.0 0.00 0.00 0.00 69 1015.7
20260505220546 63 0 0.0 0.0 0.00 0.00 0.00 68 1015.7
20260505220052 62 0 0.0 0.0 0.00 0.00 0.00 69 1015.7
20260505215542 63 0 0.0 0.0 0.00 0.00 0.00 69 1015.7
20260505215044 63 0 0.0 0.0 0.00 0.00 0.00 69 1015.8
20260505214604 63 0 0.0 0.0 0.00 0.00 0.00 69 1015.8
20260505214041 63 0 0.0 0.0 0.00 0.00 0.00 71 1015.8
20260505213542 63 0 0.0 0.0 0.00 0.00 0.00 69 1015.8
20260505213059 63 0 0.0 0.0 0.00 0.00 0.00 69 1015.7
20260505212542 62 0 0.0 0.0 0.00 0.00 0.00 69 1015.8
20260505212042 62 0 0.0 0.0 0.00 0.00 0.00 70 1015.8
20260505211554 62 0 0.0 0.0 0.00 0.00 0.00 71 1015.8
20260505211042 62 0 0.0 0.0 0.00 0.00 0.00 71 1015.8
20260505210541 62 0 0.0 0.0 0.00 0.00 0.00 71 1015.8
20260505210057 62 0 0.0 0.0 0.00 0.00 0.00 70 1015.9
20260505205542 62 0 0.0 0.0 0.00 0.00 0.00 71 1016.0
20260505205045 62 0 0.0 0.0 0.00 0.00 0.00 71 1016.0
20260505204557 61 0 0.0 0.0 0.00 0.00 0.00 71 1016.0
20260505204041 61 0 0.0 0.0 0.00 0.00 0.00 71 1016.0
20260505203542 61 0 0.0 0.0 0.00 0.00 0.00 72 1015.9
20260505203053 61 0 0.0 0.0 0.00 0.00 0.00 72 1015.9
20260505202541 61 0 0.0 0.0 0.00 0.00 0.00 72 1015.9
20260505202041 61 0 0.0 0.0 0.00 0.00 0.00 73 1015.9
20260505201550 61 0 0.0 0.0 0.00 0.00 0.00 74 1015.9
20260505201041 60 0 0.0 0.0 0.00 0.00 0.00 75 1015.9
20260505200541 60 0 0.0 0.0 0.00 0.00 0.00 76 1015.8
20260505195540 59 0 0.0 0.0 0.00 0.00 0.00 75 1015.9
20260505195041 59 0 0.0 0.0 0.00 0.00 0.00 76 1016.0
20260505194605 59 0 0.0 0.0 0.00 0.00 0.00 76 1015.9
20260505194042 59 0 0.0 0.0 0.00 0.00 0.00 77 1015.9
20260505193543 59 0 0.0 0.0 0.00 0.00 0.00 77 1015.9
20260505193052 59 0 0.0 0.0 0.00 0.00 0.00 80 1015.9
20260505192543 58 0 0.0 0.0 0.00 0.00 0.00 79 1016.0
20260505192041 58 0 0.0 0.0 0.00 0.00 0.00 78 1016.0
20260505191550 58 0 0.0 0.0 0.00 0.00 0.00 78 1016.0
20260505191041 58 0 0.0 0.0 0.00 0.00 0.00 78 1015.9
20260505190541 58 0 0.0 0.0 0.00 0.00 0.00 78 1015.9
20260505190052 58 0 0.0 0.0 0.00 0.00 0.00 78 1016.0
20260505185541 58 0 0.0 0.0 0.00 0.00 0.00 78 1016.0
20260505185041 58 0 0.0 0.0 0.00 0.00 0.00 79 1015.9
20260505184547 57 0 0.0 0.0 0.00 0.00 0.00 79 1015.9
20260505184041 57 0 0.0 0.0 0.00 0.00 0.00 80 1015.9
20260505183544 57 0 0.0 0.0 0.00 0.00 0.00 81 1015.8
20260505183054 57 0 0.0 0.0 0.00 0.00 0.00 81 1015.8
20260505182541 57 0 0.0 0.0 0.00 0.00 0.00 81 1015.8
20260505182041 57 0 0.0 0.0 0.00 0.00 0.00 81 1015.8
20260505181550 57 0 0.0 0.0 0.00 0.00 0.00 82 1015.7
20260505181045 57 0 0.0 0.0 0.00 0.00 0.00 82 1015.7
20260505180546 56 0 0.0 0.0 0.00 0.00 0.00 83 1015.6
20260505180105 56 0 0.0 0.0 0.00 0.00 0.00 82 1015.6
20260505175541 56 0 0.0 0.0 0.00 0.00 0.00 83 1015.7
20260505175043 56 0 0.0 0.0 0.00 0.00 0.00 83 1015.6
20260505174604 56 0 0.0 0.0 0.00 0.00 0.00 84 1015.6
20260505174042 56 0 0.0 0.0 0.00 0.00 0.00 83 1015.7
20260505173540 56 0 0.0 0.0 0.00 0.00 0.00 84 1015.7
20260505173048 56 0 0.0 0.0 0.00 0.00 0.00 83 1015.7
20260505172540 56 0 0.0 0.0 0.00 0.00 0.00 85 1015.6
20260505172040 55 0 0.0 0.0 0.00 0.00 0.00 85 1015.6
20260505171552 55 0 0.0 0.0 0.00 0.00 0.00 85 1015.6
20260505171043 55 0 0.0 0.0 0.00 0.00 0.00 87 1015.6
20260505170545 55 0 0.0 0.0 0.00 0.00 0.00 86 1015.5
20260505170052 55 0 0.0 0.0 0.00 0.00 0.00 87 1015.6
20260505165541 54 0 0.0 0.0 0.00 0.00 0.00 88 1015.6
20260505165041 54 0 0.0 0.0 0.00 0.00 0.00 88 1015.6
20260505164550 54 0 0.0 0.0 0.00 0.00 0.00 88 1015.5
20260505164043 54 0 0.0 0.0 0.00 0.00 0.00 88 1015.5
20260505163541 53 0 0.0 0.0 0.00 0.00 0.00 88 1015.5
20260505163054 53 0 0.0 0.0 0.00 0.00 0.00 88 1015.5
20260505162540 53 0 0.0 0.0 0.00 0.00 0.00 88 1015.5
20260505162041 53 0 0.0 0.0 0.00 0.00 0.00 88 1015.5
20260505161549 53 0 0.0 0.0 0.00 0.00 0.00 88 1015.6
20260505161042 53 0 0.0 0.0 0.00 0.00 0.00 88 1015.6
20260505160542 53 0 0.0 0.0 0.00 0.00 0.00 88 1015.5
20260505153052 52 0 0.0 0.0 0.00 0.00 0.00 89 1015.3
20260505152541 52 0 0.0 0.0 0.00 0.00 0.00 89 1015.2
20260505152041 52 0 0.0 0.0 0.00 0.00 0.00 89 1015.1
20260505151549 52 0 0.0 0.0 0.00 0.00 0.00 89 1015.1
20260505151041 52 0 0.0 0.0 0.00 0.00 0.00 89 1015.1
20260505150542 52 0 0.0 0.0 0.00 0.00 0.00 90 1015.0
20260505140542 51 0 0.0 0.0 0.00 0.00 0.00 91 1014.2
20260505140107 51 0 0.0 0.0 0.00 0.00 0.00 91 1014.3
20260505124550 50 0 0.0 0.0 0.00 0.00 0.00 92 1013.6
20260505124045 49 0 0.0 0.0 0.00 0.00 0.00 92 1013.5
20260505123541 49 0 0.0 0.0 0.00 0.00 0.00 91 1013.6
20260505123100 49 0 0.0 0.0 0.00 0.00 0.00 91 1013.6
20260505122542 49 0 0.0 0.0 0.00 0.00 0.00 91 1013.5
20260505122042 49 0 0.0 0.0 0.00 0.00 0.00 90 1013.3
20260505121549 49 0 0.0 0.0 0.00 0.00 0.00 90 1013.3
20260505121043 49 0 0.0 0.0 0.00 0.00 0.00 90 1013.2
20260505120541 49 0 0.0 0.0 0.00 0.00 0.00 90 1013.3
20260505120053 49 0 0.0 0.0 0.00 0.00 0.00 90 1013.2
20260505115541 49 0 0.0 0.0 0.00 0.00 0.00 90 1013.1
20260505115051 49 0 0.0 0.0 0.00 0.00 0.00 90 1013.1
20260505114552 49 0 0.0 0.0 0.00 0.00 0.00 89 1013.1
20260505114042 49 0 0.0 0.0 0.00 0.00 0.00 89 1013.1
20260505113542 49 0 0.0 0.0 0.00 0.00 0.00 89 1013.0
20260505113106 49 0 0.0 0.0 0.00 0.00 0.00 89 1013.0
20260505112539 49 0 0.0 0.0 0.00 0.00 0.00 89 1012.9
20260505112038 50 0 0.0 0.0 0.00 0.00 0.00 89 1012.8
20260505111552 50 0 0.0 0.0 0.00 0.00 0.00 89 1012.8
20260505111039 50 0 0.0 0.0 0.00 0.00 0.00 88 1012.8
20260505110538 50 0 0.0 0.0 0.00 0.00 0.00 88 1012.7
20260505102041 50 0 0.0 0.0 0.00 0.00 0.00 87 1012.2
20260505101545 51 0 0.0 0.0 0.00 0.00 0.00 87 1012.2
20260505101038 51 0 0.0 0.0 0.00 0.00 0.00 87 1012.1
20260505100541 51 0 0.0 0.0 0.00 0.00 0.00 87 1012.1
20260505100053 51 0 0.0 0.0 0.00 0.00 0.00 87 1012.2
20260505095539 51 0 0.0 0.0 0.00 0.00 0.00 87 1012.2
20260505095041 51 0 0.0 0.0 0.00 0.00 0.00 87 1012.2
20260505094553 51 0 0.0 0.0 0.00 0.00 0.00 86 1012.2
20260505094038 51 0 0.0 0.0 0.00 0.00 0.00 86 1012.2
20260505093538 51 0 0.0 0.0 0.00 0.00 0.00 86 1012.1
20260505093051 51 0 0.0 0.0 0.00 0.00 0.00 86 1012.1
20260505092538 51 0 0.0 0.0 0.00 0.00 0.00 86 1012.0
20260505092039 51 0 0.0 0.0 0.00 0.00 0.00 85 1012.0
20260505091606 52 0 0.0 0.0 0.00 0.00 0.00 85 1012.0
20260505091037 52 0 0.0 0.0 0.00 0.00 0.00 84 1011.9
20260505090538 52 0 0.0 0.0 0.00 0.00 0.00 84 1011.9
20260505090053 52 0 0.0 0.0 0.00 0.00 0.00 84 1011.8
20260505085541 52 0 0.0 0.0 0.00 0.00 0.00 83 1011.9
20260505085039 52 0 0.0 0.0 0.00 0.00 0.00 83 1011.8
20260505084545 52 0 0.0 0.0 0.00 0.00 0.00 82 1011.7
20260505084041 53 0 0.0 0.0 0.00 0.00 0.00 82 1011.7
20260505083542 53 0 0.0 0.0 0.00 0.00 0.00 82 1011.7
20260505083047 53 0 0.0 0.0 0.00 0.00 0.00 81 1011.6
20260505082544 53 0 0.0 0.0 0.00 0.00 0.00 81 1011.5
20260505082041 53 0 0.0 0.0 0.00 0.00 0.00 80 1011.4
20260505081559 53 0 0.0 0.0 0.00 0.00 0.00 80 1011.2
20260505081041 53 0 0.0 0.0 0.00 0.00 0.00 80 1011.1
20260505080543 53 0 0.0 0.0 0.00 0.00 0.00 81 1011.1
20260505080105 53 0 0.0 0.0 0.00 0.00 0.00 81 1010.8
20260505075541 53 0 0.0 0.0 0.00 0.00 0.00 81 1010.8
20260505075042 53 0 0.0 0.0 0.00 0.00 0.00 82 1010.6
20260505074548 53 0 0.0 0.0 0.00 0.00 0.00 82 1010.7
20260505074041 53 0 0.0 0.0 0.00 0.00 0.00 82 1010.7
20260505073541 53 0 0.0 0.0 0.00 0.00 0.00 82 1010.7
20260505073049 53 0 0.0 0.0 0.00 0.00 0.00 82 1010.6
20260505072540 53 0 0.0 0.0 0.00 0.00 0.00 81 1010.6
20260505072040 53 0 0.0 0.0 0.00 0.00 0.00 81 1010.7
20260505071557 53 0 0.0 0.0 0.00 0.00 0.00 80 1010.6
20260505071042 53 0 0.0 0.0 0.00 0.00 0.00 80 1010.6
20260505070542 53 0 0.0 0.0 0.00 0.00 0.00 80 1010.4
20260505070051 53 0 0.0 0.0 0.00 0.00 0.00 79 1010.4
20260505065542 54 0 0.0 0.0 0.00 0.00 0.00 79 1010.4
20260505065041 54 0 0.0 0.0 0.00 0.00 0.00 78 1010.4
20260505064550 54 0 0.0 0.0 0.00 0.00 0.00 78 1010.3
20260505064044 54 0 0.0 0.0 0.00 0.00 0.00 78 1010.2
20260505063541 54 0 0.0 0.0 0.00 0.00 0.00 78 1010.1
20260505063105 54 0 0.0 0.0 0.00 0.00 0.00 77 1010.2
20260505062541 54 0 0.0 0.0 0.00 0.00 0.00 76 1010.2
20260505062040 54 0 0.0 0.0 0.00 0.00 0.00 76 1010.2
20260505061612 55 0 0.0 0.0 0.00 0.00 0.00 76 1010.1
20260505061041 55 0 0.0 0.0 0.00 0.00 0.00 75 1010.1
20260505060541 55 0 0.0 0.0 0.00 0.00 0.00 74 1010.1
20260505060101 55 0 0.0 0.0 0.00 0.00 0.00 74 1010.0
20260505055541 55 0 0.0 0.0 0.00 0.00 0.00 73 1010.0
20260505055041 55 0 0.0 0.0 0.00 0.00 0.00 73 1010.0
20260505054552 55 0 0.0 0.0 0.00 0.00 0.00 73 1009.9
20260505054039 55 0 0.0 0.0 0.00 0.00 0.00 72 1009.9
20260505053540 55 0 0.0 0.0 0.00 0.00 0.00 72 1009.8
20260505053051 56 0 0.0 0.0 0.00 0.00 0.00 72 1009.8
20260505052540 56 0 0.0 0.0 0.00 0.00 0.00 72 1009.8
20260505052042 56 0 0.0 0.0 0.00 0.00 0.00 72 1009.7
20260505051611 56 0 0.0 0.0 0.00 0.00 0.00 72 1009.6
20260505051041 56 0 0.0 0.0 0.00 0.00 0.00 71 1009.5
20260505050540 56 0 0.0 0.0 0.00 0.00 0.00 71 1009.4
20260505041550 58 0 0.0 0.0 0.00 0.00 0.00 69 1009.3
20260505041041 58 0 0.0 0.0 0.00 0.00 0.00 68 1009.4
20260505040544 59 0 0.0 0.0 0.00 0.00 0.00 69 1009.3
20260505040053 59 0 0.0 0.0 0.00 0.00 0.00 68 1009.1
20260505035540 59 0 0.0 0.0 0.00 0.00 0.00 68 1009.0
20260505035041 59 0 0.0 0.0 0.00 0.00 0.00 68 1008.9
20260505034549 59 0 0.0 0.0 0.00 0.00 0.00 68 1008.9
20260505034038 60 0 0.0 0.0 0.00 0.00 0.00 68 1008.8
20260505033538 60 0 0.0 0.0 0.00 0.00 0.00 67 1008.7
20260505033046 60 0 0.0 0.0 0.00 0.00 0.00 67 1008.6
20260505032537 60 0 0.0 0.0 0.00 0.00 0.00 66 1008.6
20260505032037 60 0 0.0 0.0 0.00 0.00 0.00 66 1008.5
20260505031555 61 0 0.0 0.0 0.00 0.00 0.00 65 1008.5
20260505031040 61 0 0.0 0.0 0.00 0.00 0.00 64 1008.4
20260505030543 61 0 0.0 0.0 0.00 0.00 0.00 64 1008.5
20260505030100 61 0 0.0 0.0 0.00 0.00 0.00 64 1008.5